Starlink 11204

operational
NORAD ID: 60931 Int'l Des: 2024-155 Owner: SPXS Country: US Constellation: starlink
LEOCIRCULAR

Über Starlink 11204

Beschreibung wird geladen...

Live-Position

3D-Globus wird geladen...

Nächste Überflüge

Höhenverlauf

Altitude vs Time

uPlot chart will show altitude changes over time

Zweizeiliger Elementsatz

1 60931U 24155H 26037.55041818 -.00002963 00000-0 -19609-4 0 9997
2 60931 53.1582 134.6082 0000911 63.2899 296.8212 15.69710366 83518
Epoch: 6. Feb. 2026 • Age: 8 hours

Aktueller Status

Höhe 363.6 km
Geschwindigkeit 7.69 km/s
Subsatellitenpunkt -14.56°S, 33.31°E
Startdatum 31. Aug. 2024
Alter 1.4 years
Typ internet

Technische Details

Klassifizierung Payload
Masse 960.00 kg
Trockenmasse 910.00 kg
Gesamtmasse 960.00 kg
Länge 0.30 m
Durchmesser 4.10 m
Spannweite 29.00 m
Form Box + pan
Hersteller SPXS
Bus-Typ Starlink V2MD
Phasenstatus In Orbit
Besitzer/Staat SPXS/US

Große Konstellationen

Loading constellations...